This is the latest recevied weather packets stored in our database for station/object YO4TNV-15. If no packets are shown the sender has not sent any weather packets the latest 10 day(s).
| Time | Temp. | Humidity | Pressure | Rain* | Wind** | Luminosity | Snow |
|---|---|---|---|---|---|---|---|
| 1777648940 | 13.89° C | 28% | 1009.7 hPa | - | - | - | - |
| 1777648932 | 13.89° C | 28% | 1009.7 hPa | - | - | - | - |
| 1777648040 | 15° C | 27% | 1009.7 hPa | - | - | - | - |
| 1777648032 | 15° C | 27% | 1009.7 hPa | - | - | - | - |
| 1777647140 | 15.56° C | 26% | 1009.9 hPa | - | - | - | - |
| 1777647132 | 15.56° C | 26% | 1009.9 hPa | - | - | - | - |
| 1777646240 | 15.56° C | 26% | 1010 hPa | - | - | - | - |
| 1777646231 | 15.56° C | 26% | 1010 hPa | - | - | - | - |
| 1777645340 | 15.56° C | 27% | 1010.1 hPa | - | - | - | - |
| 1777645331 | 15.56° C | 27% | 1010.1 hPa | - | - | - | - |
| 1777644439 | 15.56° C | 26% | 1010.1 hPa | - | - | - | - |
| 1777644431 | 15.56° C | 26% | 1010.1 hPa | - | - | - | - |
| 1777643539 | 15.56° C | 25% | 1010.2 hPa | - | - | - | - |
| 1777643531 | 15.56° C | 25% | 1010.2 hPa | - | - | - | - |
| 1777642639 | 16.11° C | 24% | 1010.1 hPa | - | - | - | - |
| 1777642631 | 16.11° C | 24% | 1010.1 hPa | - | - | - | - |
| 1777641747 | 16.67° C | 23% | 1010.2 hPa | - | - | - | - |
| 1777641730 | 16.67° C | 23% | 1010.2 hPa | - | - | - | - |
| 1777640839 | 16.67° C | 24% | 1010.3 hPa | - | - | - | - |
| 1777640830 | 16.67° C | 24% | 1010.3 hPa | - | - | - | - |
| 1777639939 | 16.67° C | 25% | 1010.2 hPa | - | - | - | - |
| 1777639930 | 16.67° C | 25% | 1010.2 hPa | - | - | - | - |
| 1777639039 | 16.11° C | 25% | 1010.5 hPa | - | - | - | - |
| 1777639030 | 16.11° C | 25% | 1010.5 hPa | - | - | - | - |
| 1777638130 | 15° C | 27% | 1010.7 hPa | - | - | - | - |
* Rain since midnight (hover to see other rain measurements)
** Current wind speed in m/s (hover to see current wind gust speed)